Tracking 30009 objects as of 7-Dec-2024
HD Live streaming from Space Station
objects crossing your sky now

STARLINK-31382

Track STARLINK-31382 now!
10-day predictions
STARLINK-31382 is classified as:


NORAD ID: 59184
Int'l Code: 2024-045G
Perigee: 450.4 km
Apogee: 452.0 km
Inclination: 43.0 °
Period: 93.5 minutes
Semi major axis: 6822 km
RCS: Unknown
Launch date: March 10, 2024
Source: United States (US)
Launch site: AIR FORCE EASTERN TEST RANGE (AFETR)
Your satellite tracking list
Your tracking list is empty




NASA's NSSDC Master Catalog

Two Line Element Set (TLE):
1 59184U 24045G   24341.86946933  .00001560  00000-0  44600-4 0  9994
2 59184  43.0000 165.8648 0001212 269.5029  90.5688 15.40694274 43053
Source of the keplerian elements: AFSPC